KF0RY-10 Weather Reports


Display with metric or nautical units.
time (UTC)temp
F
wind
direction
speed
MPH
gust
MPH
rain 1hr
in
rain 24hr
in
rain mn
in
humidity
%
barometer
mb
20210513090529 57 262 0.0 1.0 0.00 0.00 0.00 83 1021.6
20210513090029 57 85 1.0 3.0 0.00 0.00 0.00 82 1021.6
20210513085529 57 343 0.0 2.0 0.00 0.00 0.00 82 1021.5
20210513085029 57 303 1.0 2.0 0.00 0.00 0.00 81 1021.6
20210513084529 57 278 1.0 2.0 0.00 0.00 0.00 81 1021.6
20210513084030 58 287 1.0 2.0 0.00 0.00 0.00 81 1021.4
20210513083529 58 289 0.0 1.0 0.00 0.00 0.00 81 1021.4
20210513083029 58 307 1.0 2.0 0.00 0.00 0.00 81 1021.4
20210513082530 58 302 1.0 2.0 0.00 0.00 0.00 81 1021.4
20210513082032 58 286 1.0 2.0 0.00 0.00 0.00 81 1021.3
20210513081530 58 81 2.0 5.0 0.00 0.00 0.00 81 1021.4
20210513081030 58 79 2.0 4.0 0.00 0.00 0.00 81 1021.3
20210513080530 58 72 4.0 6.0 0.00 0.00 0.00 80 1021.3
20210513080030 58 70 5.0 7.0 0.00 0.00 0.00 81 1021.4
20210513075530 58 74 5.0 8.0 0.00 0.00 0.00 80 1021.3
20210513075030 58 76 4.0 7.0 0.00 0.00 0.00 80 1021.2
20210513074530 58 70 5.0 7.0 0.00 0.00 0.00 80 1021.2
20210513074031 59 65 3.0 6.0 0.00 0.00 0.00 81 1021.2
20210513073530 59 67 2.0 5.0 0.00 0.00 0.00 80 1021.2
20210513073031 59 96 1.0 2.0 0.00 0.00 0.00 80 1021.2
20210513072531 59 81 2.0 4.0 0.00 0.00 0.00 80 1021.2
20210513072031 59 62 1.0 4.0 0.00 0.00 0.00 80 1021.2
20210513071531 59 289 1.0 2.0 0.00 0.00 0.00 79 1021.2
20210513071031 59 283 1.0 2.0 0.00 0.00 0.00 79 1021.1
20210513070534 59 278 1.0 1.0 0.00 0.00 0.00 79 1020.9
20210513070031 59 284 1.0 2.0 0.00 0.00 0.00 78 1020.9
20210513065531 59 278 1.0 1.0 0.00 0.00 0.00 77 1020.9
20210513065017 59 275 1.0 1.0 0.00 0.00 0.00 77 1020.9
20210513064517 59 287 1.0 2.0 0.00 0.00 0.00 77 1020.9
20210513064016 59 304 1.0 2.0 0.00 0.00 0.00 77 1020.9
20210513063517 60 284 1.0 2.0 0.00 0.00 0.00 77 1020.8
20210513063017 60 281 1.0 2.0 0.00 0.00 0.00 77 1020.9
20210513062517 60 277 1.0 3.0 0.00 0.00 0.00 76 1020.8
20210513062017 60 287 1.0 2.0 0.00 0.00 0.00 76 1020.9
20210513061517 60 283 1.0 2.0 0.00 0.00 0.00 76 1020.8
20210513061017 60 286 2.0 3.0 0.00 0.00 0.00 76 1020.8
20210513060517 60 275 1.0 2.0 0.00 0.00 0.00 75 1020.8
20210513060017 60 286 1.0 2.0 0.00 0.00 0.00 75 1020.8
20210513055517 60 285 1.0 2.0 0.00 0.00 0.00 75 1020.8
20210513055018 60 274 1.0 2.0 0.00 0.00 0.00 75 1020.8
20210513054517 61 274 1.0 1.0 0.00 0.00 0.00 75 1020.8
20210513054017 61 278 1.0 2.0 0.00 0.00 0.00 74 1020.8
20210513053518 61 275 1.0 1.0 0.00 0.00 0.00 74 1020.8
20210513053017 61 274 1.0 1.0 0.00 0.00 0.00 74 1020.8
20210513052518 61 294 1.0 1.0 0.00 0.00 0.00 74 1020.8
20210513052018 61 279 1.0 1.0 0.00 0.00 0.00 74 1020.8
20210513051518 61 272 1.0 1.0 0.00 0.00 0.00 74 1020.7
20210513051033 61 295 1.0 1.0 0.00 0.00 0.00 73 1020.7
20210513050519 61 304 1.0 2.0 0.00 0.00 0.00 73 1020.7
20210513050019 61 284 1.0 1.0 0.00 0.00 0.00 73 1020.7
20210513045518 61 273 1.0 2.0 0.00 0.00 0.00 73 1020.6
20210513045035 61 262 1.0 1.0 0.00 0.00 0.00 73 1020.6
20210513044520 61 324 1.0 2.0 0.00 0.00 0.00 71 1020.5
20210513044026 61 285 1.0 3.0 0.00 0.00 0.00 71 1020.6
20210513043525 61 285 1.0 2.0 0.00 0.00 0.00 71 1020.5
20210513043019 61 288 1.0 1.0 0.00 0.00 0.00 71 1020.5
20210513042519 61 280 1.0 1.0 0.00 0.00 0.00 71 1020.4
20210513042019 61 301 1.0 3.0 0.00 0.00 0.00 70 1020.4
20210513041521 61 293 1.0 2.0 0.00 0.00 0.00 70 1020.3
20210513041023 62 302 1.0 2.0 0.00 0.00 0.00 70 1020.2
20210513040526 62 290 1.0 3.0 0.00 0.00 0.00 70 1020.2
20210513040021 62 280 1.0 2.0 0.00 0.00 0.00 70 1020.0
20210513035525 62 282 1.0 2.0 0.00 0.00 0.00 69 1019.9
20210513035035 62 280 1.0 1.0 0.00 0.00 0.00 69 1019.8
20210513034520 62 298 1.0 2.0 0.00 0.00 0.00 69 1019.8
20210513034019 62 288 1.0 2.0 0.00 0.00 0.00 68 1019.8
20210513033520 63 294 1.0 2.0 0.00 0.00 0.00 68 1019.8
20210513033020 63 288 1.0 2.0 0.00 0.00 0.00 68 1019.7
20210513032520 63 298 1.0 2.0 0.00 0.00 0.00 67 1019.7
20210513032020 63 288 1.0 3.0 0.00 0.00 0.00 67 1019.7
20210513031520 64 285 1.0 2.0 0.00 0.00 0.00 66 1019.7
20210513031020 64 279 1.0 1.0 0.00 0.00 0.00 65 1019.7
20210513030521 64 313 1.0 4.0 0.00 0.00 0.00 64 1019.7
20210513030020 64 270 1.0 1.0 0.00 0.00 0.00 64 1019.7
20210513025520 65 331 1.0 4.0 0.00 0.00 0.00 63 1019.6
20210513025020 65 286 1.0 2.0 0.00 0.00 0.00 62 1019.6
20210513024520 65 298 1.0 2.0 0.00 0.00 0.00 61 1019.6
20210513024021 65 298 1.0 2.0 0.00 0.00 0.00 60 1019.6
20210513023535 66 280 1.0 3.0 0.00 0.00 0.00 58 1019.6
20210513023021 66 294 2.0 5.0 0.00 0.00 0.00 57 1019.6
20210513022521 66 308 2.0 4.0 0.00 0.00 0.00 56 1019.5
20210513022021 67 286 2.0 3.0 0.00 0.00 0.00 56 1019.5
20210513021536 67 289 1.0 2.0 0.00 0.00 0.00 56 1019.5
20210513021021 67 283 2.0 3.0 0.00 0.00 0.00 56 1019.5
20210513020540 67 263 1.0 3.0 0.00 0.00 0.00 56 1019.5
20210513020021 67 296 1.0 3.0 0.00 0.00 0.00 56 1019.5
20210513015522 67 290 1.0 3.0 0.00 0.00 0.00 55 1019.5
20210513015022 68 289 1.0 2.0 0.00 0.00 0.00 55 1019.4
20210513014522 68 330 2.0 6.0 0.00 0.00 0.00 54 1019.4
20210513014022 68 351 3.0 7.0 0.00 0.00 0.00 53 1019.4
20210513013523 68 336 2.0 4.0 0.00 0.00 0.00 53 1019.4
20210513013037 68 333 3.0 5.0 0.00 0.00 0.00 53 1019.3
20210513012522 68 358 2.0 4.0 0.00 0.00 0.00 53 1019.3
20210513012022 68 309 1.0 4.0 0.00 0.00 0.00 52 1019.3
20210513011522 68 312 1.0 2.0 0.00 0.00 0.00 51 1019.3
20210513011023 69 342 3.0 6.0 0.00 0.00 0.00 51 1019.2
20210513010522 69 349 2.0 5.0 0.00 0.00 0.00 51 1019.3
20210513010023 69 303 1.0 2.0 0.00 0.00 0.00 51 1019.3
20210513005523 69 289 2.0 3.0 0.00 0.00 0.00 51 1019.4
20210513005022 69 276 1.0 6.0 0.00 0.00 0.00 50 1019.4
20210513004523 69 284 2.0 5.0 0.00 0.00 0.00 51 1019.4
20210513004022 69 345 2.0 8.0 0.00 0.00 0.00 51 1019.5
20210513003523 69 324 2.0 4.0 0.00 0.00 0.00 51 1019.5
20210513003023 69 347 2.0 5.0 0.00 0.00 0.00 50 1019.5
20210513002523 69 321 2.0 5.0 0.00 0.00 0.00 51 1019.6
20210513002023 69 299 2.0 3.0 0.00 0.00 0.00 51 1019.6
20210513001523 69 334 2.0 4.0 0.00 0.00 0.00 51 1019.7
20210513001023 70 356 3.0 6.0 0.00 0.00 0.00 51 1019.6
20210513000523 70 342 2.0 5.0 0.00 0.00 0.00 52 1019.6
20210513000023 70 10 2.0 7.0 0.00 0.00 0.00 51 1019.5
20210512235523 70 321 2.0 4.0 0.00 0.00 0.00 51 1019.5
20210512235043 70 359 2.0 5.0 0.00 0.00 0.00 51 1019.4
20210512234523 70 338 2.0 5.0 0.00 0.00 0.00 52 1019.4
20210512234039 70 6 3.0 7.0 0.00 0.00 0.00 51 1019.4
20210512233524 70 49 2.0 4.0 0.00 0.00 0.00 51 1019.4
20210512233024 70 283 2.0 4.0 0.00 0.00 0.00 51 1019.5
20210512232524 70 331 2.0 4.0 0.00 0.00 0.00 50 1019.5
20210512232024 70 8 2.0 7.0 0.00 0.00 0.00 51 1019.5
20210512231524 70 334 2.0 5.0 0.00 0.00 0.00 52 1019.5
20210512231039 70 310 2.0 5.0 0.00 0.00 0.00 53 1019.6
20210512230525 70 329 2.0 6.0 0.00 0.00 0.00 53 1019.6
20210512230024 70 356 3.0 5.0 0.00 0.00 0.00 52 1019.6
20210512225524 70 346 2.0 6.0 0.00 0.00 0.00 53 1019.7
20210512225025 70 331 2.0 6.0 0.00 0.00 0.00 53 1019.7
20210512224525 70 341 3.0 7.0 0.00 0.00 0.00 54 1019.7
20210512224025 70 312 1.0 3.0 0.00 0.00 0.00 55 1019.7
20210512223525 70 286 2.0 4.0 0.00 0.00 0.00 56 1019.7
20210512223025 70 299 2.0 3.0 0.00 0.00 0.00 56 1019.8
20210512222525 70 290 2.0 4.0 0.00 0.00 0.00 57 1019.8
20210512222025 69 292 2.0 5.0 0.00 0.00 0.00 58 1019.8
20210512221525 70 291 3.0 6.0 0.00 0.00 0.00 58 1019.7
20210512221025 70 298 3.0 5.0 0.00 0.00 0.00 58 1019.8
20210512220526 70 269 2.0 3.0 0.00 0.00 0.00 58 1019.8
20210512220025 70 293 4.0 8.0 0.00 0.00 0.00 57 1019.8
20210512215525 70 307 2.0 4.0 0.00 0.00 0.00 58 1019.8
20210512215025 70 299 2.0 6.0 0.00 0.00 0.00 56 1019.7
20210512214526 70 344 2.0 4.0 0.00 0.00 0.00 56 1019.7
20210512214026 70 309 2.0 4.0 0.00 0.00 0.00 56 1019.7
20210512213526 70 334 2.0 6.0 0.00 0.00 0.00 53 1019.7
20210512213026 69 284 2.0 3.0 0.00 0.00 0.00 50 1019.7
20210512212526 69 302 2.0 4.0 0.00 0.00 0.00 52 1019.8
20210512212026 68 317 2.0 4.0 0.00 0.00 0.00 55 1019.7
20210512211527 68 59 2.0 5.0 0.00 0.00 0.00 56 1019.8
20210512211026 68 16 2.0 4.0 0.00 0.00 0.00 57 1019.7
20210512210526 68 15 2.0 8.0 0.00 0.00 0.00 58 1019.8
20210512210026 67 279 3.0 5.0 0.00 0.00 0.00 61 1019.7
20210512205527 67 240 2.0 3.0 0.00 0.00 0.00 61 1019.7
20210512205028 66 269 3.0 5.0 0.00 0.00 0.00 61 1019.8
20210512204527 66 123 3.0 5.0 0.00 0.00 0.00 62 1019.8
20210512204028 65 96 3.0 6.0 0.00 0.00 0.00 62 1019.8
20210512203529 65 78 4.0 6.0 0.00 0.00 0.00 61 1019.9
20210512203028 66 74 5.0 7.0 0.00 0.00 0.00 62 1019.8
20210512202529 65 89 3.0 7.0 0.00 0.00 0.00 62 1019.9
20210512202027 65 96 4.0 6.0 0.00 0.00 0.00 63 1019.9
20210512201528 65 81 5.0 7.0 0.00 0.00 0.00 62 1020.0
20210512201028 65 83 2.0 4.0 0.00 0.00 0.00 62 1020.0
20210512200544 65 92 2.0 5.0 0.00 0.00 0.00 62 1020.0
20210512200042 65 163 2.0 4.0 0.00 0.00 0.00 64 1020.0
20210512195529 65 65 1.0 3.0 0.00 0.00 0.00 63 1020.1
20210512195027 65 80 2.0 4.0 0.00 0.00 0.00 66 1020.1
20210512194527 64 113 2.0 4.0 0.00 0.00 0.00 68 1020.0
20210512194028 64 122 4.0 6.0 0.00 0.00 0.00 68 1020.0
20210512193528 64 132 4.0 7.0 0.00 0.00 0.00 67 1020.1
20210512193028 64 105 3.0 6.0 0.00 0.00 0.00 68 1020.1
20210512192528 64 115 4.0 6.0 0.00 0.00 0.00 68 1020.1
20210512192028 64 115 3.0 5.0 0.00 0.00 0.00 68 1020.1
20210512191528 64 78 3.0 6.0 0.00 0.00 0.00 68 1020.1
20210512191028 63 99 3.0 6.0 0.00 0.00 0.00 69 1020.1
20210512190528 63 100 4.0 6.0 0.00 0.00 0.00 68 1020.1
20210512190028 63 84 4.0 7.0 0.00 0.00 0.00 69 1020.2
20210512185529 63 89 4.0 7.0 0.00 0.00 0.00 69 1020.1
20210512185029 63 93 3.0 7.0 0.00 0.00 0.00 70 1020.2
20210512184530 62 73 4.0 6.0 0.00 0.00 0.00 69 1020.2
20210512184034 63 66 4.0 6.0 0.00 0.00 0.00 69 1020.2
20210512183529 63 67 4.0 7.0 0.00 0.00 0.00 68 1020.1
20210512183029 63 335 2.0 5.0 0.00 0.00 0.00 69 1020.1
20210512182529 63 327 1.0 4.0 0.00 0.00 0.00 69 1020.2
20210512182044 63 328 1.0 3.0 0.00 0.00 0.00 69 1020.1
20210512181529 63 320 1.0 3.0 0.00 0.00 0.00 69 1020.2
20210512181029 62 304 1.0 2.0 0.00 0.00 0.00 70 1020.1
20210512180529 62 97 1.0 3.0 0.00 0.00 0.00 70 1020.2
20210512180030 62 336 1.0 4.0 0.00 0.00 0.00 71 1020.2
20210512175530 62 275 1.0 2.0 0.00 0.00 0.00 73 1020.1
20210512175030 62 277 1.0 2.0 0.00 0.00 0.00 72 1020.2
20210512174541 62 296 2.0 3.0 0.00 0.00 0.00 73 1020.1
20210512174030 62 320 1.0 3.0 0.00 0.00 0.00 73 1020.2
20210512173530 62 357 2.0 3.0 0.00 0.00 0.00 73 1020.1
20210512173030 61 5 2.0 3.0 0.00 0.00 0.00 74 1020.1
20210512172530 61 330 1.0 4.0 0.00 0.00 0.00 74 1020.1
20210512172030 61 307 2.0 3.0 0.00 0.00 0.00 74 1020.1
20210512171530 61 322 1.0 5.0 0.00 0.00 0.00 74 1020.1
20210512171030 61 269 1.0 3.0 0.00 0.00 0.00 75 1020.0
20210512170530 61 285 1.0 3.0 0.00 0.00 0.00 75 1020.0
20210512170030 61 284 1.0 2.0 0.00 0.00 0.00 74 1020.0
20210512165530 61 292 2.0 2.0 0.00 0.00 0.00 75 1020.0
20210512165031 61 313 1.0 3.0 0.00 0.00 0.00 75 1020.0
20210512164531 61 299 2.0 3.0 0.00 0.00 0.00 75 1020.0
20210512164031 60 293 1.0 4.0 0.00 0.00 0.00 75 1020.0
20210512163531 60 298 2.0 4.0 0.00 0.00 0.00 75 1019.9
20210512163032 60 287 1.0 2.0 0.00 0.00 0.00 76 1019.9
20210512162530 60 291 1.0 3.0 0.00 0.00 0.00 76 1019.9
20210512162026 60 275 1.0 2.0 0.00 0.00 0.00 76 1019.9
20210512161518 59 329 1.0 4.0 0.00 0.00 0.00 77 1019.9
20210512161016 59 305 2.0 3.0 0.00 0.00 0.00 79 1019.9
20210512160516 59 339 1.0 3.0 0.00 0.00 0.00 80 1019.9
20210512160017 58 325 1.0 3.0 0.00 0.00 0.00 81 1019.9
20210512155517 58 13 1.0 2.0 0.00 0.00 0.00 81 1019.9
20210512155018 58 67 2.0 4.0 0.00 0.00 0.00 81 1019.9
20210512154517 58 72 2.0 5.0 0.00 0.00 0.00 81 1019.9
20210512154017 58 325 1.0 3.0 0.00 0.00 0.00 81 1019.9
20210512153522 57 54 2.0 3.0 0.00 0.00 0.00 81 1019.9
20210512153023 57 71 1.0 3.0 0.00 0.00 0.00 81 1019.9
20210512152518 57 297 1.0 2.0 0.00 0.00 0.00 81 1019.9
20210512152017 57 280 1.0 2.0 0.00 0.00 0.00 81 1019.8
20210512151518 57 325 1.0 2.0 0.00 0.00 0.00 81 1019.8
20210512151017 57 89 1.0 3.0 0.00 0.00 0.00 82 1019.8
20210512150517 57 97 1.0 2.0 0.00 0.00 0.00 82 1019.8
20210512150017 57 101 1.0 3.0 0.00 0.00 0.00 82 1019.8
20210512145534 57 109 1.0 2.0 0.00 0.00 0.00 82 1019.8
20210512145018 57 283 1.0 2.0 0.00 0.00 0.00 82 1019.8
20210512144518 57 268 0.0 1.0 0.00 0.00 0.00 82 1019.7
20210512144018 57 312 1.0 3.0 0.00 0.00 0.00 82 1019.7
20210512143517 56 313 0.0 2.0 0.00 0.00 0.00 82 1019.7
20210512143018 56 328 1.0 2.0 0.00 0.00 0.00 82 1019.7
20210512142533 56 302 0.0 1.0 0.00 0.00 0.00 82 1019.8
20210512142018 56 291 0.0 1.0 0.00 0.00 0.00 82 1019.7
20210512141518 56 299 0.0 1.0 0.00 0.00 0.00 81 1019.7
20210512141018 56 0 0.0 0.0 0.00 0.00 0.00 81 1019.6
20210512140518 56 333 0.0 1.0 0.00 0.00 0.00 81 1019.6
20210512140019 56 7 0.0 1.0 0.00 0.00 0.00 81 1019.7
20210512135518 56 358 0.0 2.0 0.00 0.00 0.00 82 1019.6
20210512135019 56 0.0 0.0 0.00 0.00 0.00 82 1019.6
20210512134519 55 268 1.0 1.0 0.00 0.00 0.00 82 1019.5
20210512134018 55 345 1.0 2.0 0.00 0.00 0.00 81 1019.5
20210512133519 55 80 1.0 2.0 0.00 0.00 0.00 81 1019.5
20210512133019 55 86 0.0 1.0 0.00 0.00 0.00 81 1019.5
20210512132519 55 61 2.0 3.0 0.00 0.00 0.00 81 1019.5
20210512132020 55 60 2.0 4.0 0.00 0.00 0.00 81 1019.5
20210512131519 0 0.0 0.0 0.00 0.00 0.00
20210512131019 55 85 0.0 1.0 0.00 0.00 0.00 81 1019.5
20210512130519 55 0.0 0.0 0.00 0.00 0.00 81 1019.5
20210512130019 55 304 0.0 2.0 0.00 0.00 0.00 81 1019.5
20210512125520 55 294 1.0 2.0 0.00 0.00 0.00 81 1019.5
20210512125020 55 128 0.0 1.0 0.00 0.00 0.00 81 1019.4
20210512124520 55 287 1.0 2.0 0.00 0.00 0.00 81 1019.5
20210512124020 55 291 1.0 2.0 0.00 0.00 0.00 80 1019.4
20210512123520 55 0.0 0.0 0.00 0.00 0.00 80 1019.3
20210512123020 55 0.0 0.0 0.00 0.00 0.00 80 1019.3
20210512122520 55 303 0.0 1.0 0.00 0.00 0.00 79 1019.3
20210512122020 55 95 1.0 2.0 0.00 0.00 0.00 79 1019.3
20210512121521 55 306 0.0 2.0 0.00 0.00 0.00 80 1019.4
20210512121021 55 306 0.0 1.0 0.00 0.00 0.00 79 1019.4
20210512120520 55 288 0.0 2.0 0.00 0.00 0.00 80 1019.4
20210512120020 55 287 0.0 1.0 0.00 0.00 0.00 79 1019.5
20210512115521 56 0 0.0 0.0 0.00 0.00 0.00 80 1019.4
20210512115021 56 297 1.0 2.0 0.00 0.00 0.00 79 1019.5
20210512114521 56 293 1.0 3.0 0.00 0.00 0.00 79 1019.5
20210512114020 56 351 0.0 1.0 0.00 0.00 0.00 78 1019.5
20210512113521 56 0.0 0.0 0.00 0.00 0.00 77 1019.5
20210512113021 56 0.0 0.0 0.00 0.00 0.00 79 1019.5
20210512112521 56 0 0.0 0.0 0.00 0.00 0.00 80 1019.7
20210512112021 56 291 2.0 3.0 0.00 0.00 0.00 80 1019.8
20210512111523 56 289 2.0 2.0 0.00 0.00 0.00 77 1019.7
20210512111021 56 299 0.0 1.0 0.00 0.00 0.00 78 1019.6
20210512110521 56 287 0.0 1.0 0.00 0.00 0.00 79 1019.6
20210512110022 56 301 0.0 1.0 0.00 0.00 0.00 78 1019.5
20210512105522 56 283 1.0 2.0 0.00 0.00 0.00 79 1019.6
20210512105021 56 251 0.0 2.0 0.00 0.00 0.00 79 1019.5
20210512104522 56 285 1.0 1.0 0.00 0.00 0.00 80 1019.6
20210512104023 56 281 1.0 2.0 0.00 0.00 0.00 79 1019.5
20210512103522 56 292 1.0 2.0 0.00 0.00 0.00 79 1019.4
20210512103022 0 0.0 0.0 0.00 0.00 0.00
20210512102523 56 285 1.0 1.0 0.00 0.00 0.00 79 1019.4
20210512102022 56 301 0.0 1.0 0.00 0.00 0.00 77 1019.4
20210512101523 56 64 1.0 3.0 0.00 0.00 0.00 76 1019.4
20210512101024 56 349 1.0 2.0 0.00 0.00 0.00 77 1019.4
20210512100528 56 280 0.0 1.0 0.00 0.00 0.00 77 1019.4
20210512100023 56 278 1.0 1.0 0.00 0.00 0.00 76 1019.4
20210512095523 56 282 1.0 1.0 0.00 0.00 0.00 76 1019.4
20210512095023 56 279 1.0 1.0 0.00 0.00 0.00 75 1019.4
20210512094523 56 285 0.0 0.0 0.00 0.00 0.00 75 1019.4
20210512094023 56 89 1.0 3.0 0.00 0.00 0.00 75 1019.4
20210512093524 56 288 0.0 1.0 0.00 0.00 0.00 75 1019.4
20210512093023 56 274 1.0 1.0 0.00 0.00 0.00 75 1019.5
20210512092523 56 282 1.0 2.0 0.00 0.00 0.00 74 1019.5
20210512092023 56 271 0.0 1.0 0.00 0.00 0.00 74 1019.5
20210512091524 56 267 1.0 1.0 0.00 0.00 0.00 74 1019.5
20210512091024 56 277 1.0 1.0 0.00 0.00 0.00 74 1019.5